Location: Berlin
(52.5171°N, 13.4421°E)
Time: 00:42:08
(UTC+01:00)

ISS - Visible Passes

Search period start: 21 February 2020 00:00
Search period end: 02 March 2020 00:00
Orbit: 416 x 422 km, 51.6° (Epoch: 21 February)

Date Brightness Start Highest point End Pass type
(mag) Time Alt. Az. Time Alt. Az. Time Alt. Az.
23 Feb -1.0 05:57:40 10° S 05:59:57 17° SE 06:02:14 10° E visible
24 Feb -0.8 05:11:10 10° SSE 05:12:32 12° SE 05:13:53 10° ESE visible
25 Feb -2.1 05:58:04 10° SW 06:01:07 31° SSE 06:04:09 10° E visible
26 Feb -1.8 05:11:49 16° S 05:13:35 23° SSE 05:16:21 10° E visible
27 Feb -1.3 04:26:13 17° SE 04:26:13 17° SE 04:28:22 10° E visible
27 Feb -3.1 05:59:10 11° WSW 06:02:23 52° SSE 06:05:42 10° E visible
28 Feb -2.8 05:13:27 27° SSW 05:14:46 41° SSE 05:17:59 10° E visible
29 Feb -2.2 04:27:40 30° SE 04:27:40 30° SE 04:30:13 10° E visible
29 Feb -3.6 06:00:37 12° WSW 06:03:43 73° S 06:07:06 10° E visible
01 Mar -0.6 03:41:50 13° E 03:41:50 13° E 03:42:21 10° E visible
01 Mar -3.6 05:14:46 34° SW 05:16:02 63° SSE 05:19:23 10° E visible
